Location: ?astrovice
(49.6513°N, 14.9287°E)
Time: 13:05:05
(UTC+00:00)

STARLINK-1243 - Pass Details

Date: 09 April 2020
Orbit: 549 x 550 km, 53.0° (Epoch: 03 June)

Event Time Altitude Azimuth Distance (km) Brightness Sun altitude
Rises 19:29:19 0° 293° (WNW) 2,724 8.8 -16.2°
Reaches altitude 10° 19:31:33 10° 291° (WNW) 1,828 7.5 -16.5°
Maximum altitude 19:35:41 69° 209° (SSW) 591 3.7 -17.1°
Enters shadow 19:37:09 38° 137° (SE) 853 4.0 -17.3°
